Regional Weather Roundup
Issued by NWS

Home | Current Version | Previous Version | Graphics & Text | Print | Product List | Glossary On
Versions: 1 2 3 4 5 6 7 8 9 10 11 12 13 14 15 16 17 18 19 20 21 22 23 24 25 26 27 28 29 30 31 32 33 34 35 36 37 38 39 40 41 42 43 44 45 46 47 48 49 50
000
ASUS43 KMKX 170100
RWRWI

WISCONSIN REGIONAL WEATHER ROUNDUP
NATIONAL WEATHER SERVICE MILWAUKEE/SULLIVAN WI
800 PM CDT WED APR 16 2014

NOTE: "FAIR" INDICATES FEW OR NO CLOUDS BELOW 12,000 FEET WITH NO
SIGNIFICANT WEATHER AND/OR OBSTRUCTIONS TO VISIBILITY.

WIZ001-002-006>008-014>016-023>028-170200-
NORTHWEST WISCONSIN

CITY           SKY/WX    TMP DP  RH WIND       PRES   REMARKS
SUPERIOR ARPT  LGT SNOW  28  26  94 NE18G29   30.16S WCI  15
ASHLAND        SNOW      27  26  96 NE18G29   30.16S VSB 1/4 WCI  14
HAYWARD        SNOW      28  25  88 NE14      30.05S VSB 1/2 WCI  17
SIREN          LGT SNOW  29  28  94 NE13G21   30.02F WCI  19
RICE LAKE      LGT SNOW  34  32  92 NE10G17   30.00R WCI  26
LADYSMITH      LGT SNOW  35  32  88 E9        30.02R WCI  27
EAU CLAIRE     CLOUDY    46  31  55 NE12G22   29.92R
MENOMONIE      DRIZZLE   41  35  79 N9        29.91R
NEW RICHMOND   RAIN      33  33 100 NE13      29.94S WCI  24
OSCEOLA        SNOW      32  32 100 NE10      29.99S VSB 1/2 WCI  24
$$

WIZ003>005-009-010-017-018-170200-
NORTH CENTRAL WISCONSIN

CITY           SKY/WX    TMP DP  RH WIND       PRES   REMARKS
WOODRUFF       SNOW      32  28  86 E9        30.07S VSB 1/2 WCI  24
RHINELANDER    LGT SNOW  30  25  81 SE15      30.08R WCI  19
EAGLE RIVER    LGT SNOW  29  26  87 SE8       30.10R WCI  21
LAND O LAKES   SNOW      29  28  94 SE7       30.12S VSB 1/2 WCI  22
PHILLIPS       CLOUDY    32  28  83 E10G18    30.03R WCI  24
TOMAHAWK       LGT SNOW  32  27  80 E6        30.06R WCI  27
MEDFORD        LGT RAIN  35  30  82 E14G21    30.01R WCI  26
MERRILL        CLOUDY    35  28  75 CALM      30.06R
$$

WIZ029-030-035-036-043>047-170200-
CENTRAL WISCONSIN

CITY           SKY/WX    TMP DP  RH WIND       PRES   REMARKS
WAUSAU         LGT SNOW  36  27  69 SE16G28   30.05R WCI  26
MOSINEE        NOT AVBL
MARSHFIELD     CLOUDY    38  30  73 E21G29    29.99S WCI  28
STEVENS POINT  CLOUDY    36  26  66 E20G26    30.04F WCI  25
WAUPACA        CLOUDY    41  25  52 SE15G21   30.10R
WAUTOMA        NOT AVBL
WISC RAPIDS    CLOUDY    40  29  64 E12       30.05R WCI  33
CAMP DOUGLAS   NOT AVBL
$$

WIZ011>013-019>022-031-037>040-048>050-170200-
NORTHEAST WISCONSIN

CITY           SKY/WX    TMP DP  RH WIND       PRES   REMARKS
ANTIGO         CLOUDY    32  25  74 SE23      30.08S WCI  19
STURGEON BAY   CLOUDY    34  27  75 E14G20    30.19F WCI  24
GREEN BAY      CLOUDY    39  23  52 SE18      30.15F WCI  30
MANITOWOC      NOT AVBL
APPLETON       CLOUDY    37  25  60 SE16G23   30.12R WCI  28
CLINTONVILLE   CLOUDY    37  25  60 SE17      30.13R WCI  28
OSHKOSH        CLOUDY    40  24  53 SE18G28   30.09F WCI  31
$$

WIZ032>034-041-042-053>061-170200-
SOUTHWEST WISCONSIN

CITY           SKY/WX    TMP DP  RH WIND       PRES   REMARKS
LA CROSSE      CLOUDY    52  28  39 SE20G26   29.90R
SPARTA         CLOUDY    50  27  41 SE12G21   29.95S
VIROQUA        CLOUDY    48  30  50 SE18G26   29.92F
BOSCOBEL       CLOUDY    52  28  39 VRB7      29.96F
PRAIRIE DU CHI CLOUDY    53  25  34 SE17      29.91F
PLATTEVILLE    FAIR      49  29  45 S15G22    30.00R
$$

WIZ056-057-062-063-064-067-068-170200-
SOUTH CENTRAL WISCONSIN

CITY           SKY/WX    TMP DP  RH WIND       PRES   REMARKS
BARABOO/DELLS  CLOUDY    47  29  51 SE17      30.02R
LONE ROCK      NOT AVBL
WATERTOWN      CLOUDY    43  28  53 SE14G22   30.06F
MADISON        CLOUDY    49  29  46 SE17G33   30.02S
MIDDLETON      FAIR      50  27  41 S13G30    30.02R
MONROE         CLOUDY    48  30  49 SE18      30.01R
JANESVILLE     CLOUDY    50  27  40 SE15G21   30.05S
$$

WIZ051-052-058>065-066-070>072-170200-
SOUTHEAST WISCONSIN

CITY           SKY/WX    TMP DP  RH WIND       PRES   REMARKS
MILWAUKEE      CLOUDY    42  27  55 SE23G29   30.16R
WAUKESHA       CLOUDY    41  23  48 SE17G26   30.12S
MILWAUKEE/TIMM CLOUDY    43  25  49 SE12G21   30.14S
RACINE         CLOUDY    41  28  60 SE16G26   30.16S
BURLINGTON     CLOUDY    43  27  53 SW12      30.11S
KENOSHA        CLOUDY    43  27  53 SE15      30.14R
FOND DU LAC    CLOUDY    40  25  55 SE20G25   30.09F WCI  30
SHEBOYGAN      CLOUDY    40  23  50 SE13      30.16S WCI  32
WEST BEND      CLOUDY    39  23  52 SE14G21   30.13F WCI  31
JUNEAU         CLOUDY    43  22  43 SE18G28   30.08S
$$

LSZ147-162-170200-
LAKE SUPERIOR

STATION/POSITION TIME  TEMP    WIND        PRES    WAVE
                       AIR SEA DIR/SP/G            HT/PER
                 (UTC) (F)     (DEG/KT/KT) (MB)    (FT/S)
DEVILS ISLAND    0000   28      60/ 27/ 30 1023.9R
PORT WING        0002   28      50/ 20/ 25 1021.3S
SAXON HARBOR     0000           50/ 20/ 24 1020.7S
$$

LMZ867-665-643>646-170200-
LAKE MICHIGAN

STATION/POSITION TIME  TEMP    WIND        PRES    WAVE
                       AIR SEA DIR/SP/G            HT/PER
                 (UTC) (F)     (DEG/KT/KT) (MB)    (FT/S)
NORTHPORT PIER   0000   31     100/ 25/ 29 1023.4F
SISTER BAY       0023   31     120/ 16/ 23   N/A
SHEBOYGAN LAKESH 0000   39     120/ 23/ 24 1022.2F
PORT WASHINGTON  0040   40     120/ 15/ 20 1021.7S
MILWAUKEE LAKESH 0000   39     120/ 18/ 21   N/A
KENOSHA   LAKESH 0000   40     130/ 22/ 25   N/A
$$

TC  - TEMPERATURE IN CELSIUS
VSB - VISIBILITY IN STATUTE MILES
WCI - WIND CHILL INDEX
HX  - HEAT INDEX




USA.gov is the U.S. government's official web portal to all federal, state and local government web resources and services.